[[{"header":{"parameterUnit":"m.s-1","parameterCategory":1,"la1":30.2991,"la2":30.254,"lo1":-89.0895,"lo2":-89.0444,"dy":0.0017,"dx":0.0017,"nx":28,"ny":28,"refTime":"2024-07-15T03:00:00:Z","depth":0,"parameterNumber":2,"parameterNumberName":"U-component_of_WINDS"},"data":[0,0,0,0,0,0,0,0,0,0,0,0,0,0,0,0,0,0,0,0,0,0,0,0,0,0,0,0,0,0,0,0,0,0,0,0,0,0,0,0,0,0,0,0,0,0,0,0,0,0,0,0,0,0,0,0,0,0,3.5188,3.5189,0,3.5339,3.5341,3.5342,3.5321,3.5319,3.5316,3.5314,3.547,3.5476,3.5482,0,0,0,0,0,0,0,0,0,0,0,0,0,3.488,3.4886,3.5188,3.5189,3.5191,3.5339,3.5341,3.5343,3.5322,3.5319,3.5316,3.5313,3.5468,3.5475,3.5483,0,0,0,0,0,0,0,0,0,0,0,0,0,3.5021,3.4888,3.5187,3.5199,3.5201,3.5338,3.5341,3.5343,3.5323,3.5319,3.5315,3.5312,3.5465,3.5474,3.5484,3.5619,0,0,3.5514,3.5518,0,0,0,0,0,0,0,0,3.5013,3.5032,3.5195,3.5198,3.5201,3.5307,3.5289,3.5436,3.5324,3.5277,3.5314,3.531,3.5419,3.5432,3.5469,3.5627,3.5633,3.5515,3.5521,3.5525,3.5527,0,0,0,0,0,0,0,3.5003,3.5025,3.5247,3.5198,3.5201,3.5196,3.5212,3.5317,3.5367,3.528,3.5279,3.5297,3.542,3.5459,3.5472,3.5636,3.5514,3.5523,3.5529,3.5533,3.591,3.5914,0,0,0,0,0,0,3.499,3.5018,3.5243,3.5252,3.5096,3.5205,3.5222,3.5277,3.5366,3.5376,3.53,3.5296,3.5445,3.5461,3.5478,3.5641,3.5525,3.5534,3.5539,3.5906,3.5911,3.5916,0,0,0,0,0,0,3.4984,3.5011,3.5237,3.5135,3.5163,3.5214,3.5276,3.5282,3.5322,3.5381,3.539,3.5332,3.5442,3.5464,3.5584,3.5646,3.5538,3.5547,3.5901,3.5908,3.5913,3.5968,0,0,0,0,0,0,3.4975,3.5008,3.5061,3.5136,3.5168,3.5341,3.528,3.5288,3.5338,3.5334,3.5413,3.5422,3.5441,3.5569,3.5593,3.5657,3.5555,3.5896,3.5904,3.5911,3.5961,3.5976,3.5988,0,0,0,0,0,3.4964,3.5071,3.5063,3.5091,3.5235,3.5344,3.5363,3.5382,3.5344,3.5396,3.5434,3.542,3.5635,3.5582,3.5609,3.5676,3.5892,3.5902,3.5911,3.5955,3.5973,3.5988,0,0,0,0,0,0,3.5002,3.5081,3.5074,3.5208,3.5269,3.534,3.5407,3.5401,3.5475,3.5467,3.5488,3.5506,3.5627,3.5664,3.5603,3.5811,3.5758,3.5773,3.5783,3.58,3.5813,3.5801,3.5563,0,0,0,0,0,3.5026,3.5108,3.5173,3.5285,3.5316,3.5356,3.5405,3.5414,3.5479,3.5505,3.5552,3.5615,3.5697,3.5751,3.5829,3.5966,3.5982,3.6026,3.6039,3.605,3.6063,3.6136,3.6156,3.5947,3.5947,3.5946,0,0,3.5076,3.5129,3.518,3.5293,3.5342,3.5427,3.5379,3.547,3.5533,3.5519,3.5635,3.5671,3.5743,3.5872,3.5931,3.5906,3.6124,3.6062,3.607,3.6077,3.6148,3.6168,3.6185,3.5953,3.5952,3.5951,0,0,3.5211,3.526,3.5357,3.5407,3.5481,3.5507,3.5531,3.5603,3.5626,3.5743,3.5734,3.5808,3.5949,3.6001,3.6045,3.6197,3.6186,3.6222,3.6292,3.6364,3.638,3.6395,3.6448,3.6467,3.6235,3.6235,3.6235,0,3.5264,3.5391,3.5409,3.5501,3.555,3.5541,3.564,3.5687,3.5784,3.5818,3.5789,3.5964,3.6012,3.6152,3.6189,3.6226,3.6252,3.6213,3.6376,3.6391,3.6405,3.6456,3.6476,3.6239,3.6239,3.6238,3.6238,0,3.5451,3.5539,3.5609,3.5702,3.5759,3.5854,3.5886,3.5942,3.5946,3.5975,3.6093,3.615,3.6239,3.6273,3.6279,3.6414,3.6396,3.6371,3.6319,3.6429,3.6476,3.6496,3.6244,3.6243,3.6242,3.6241,0,0,3.5615,3.5715,3.574,3.5781,3.5862,3.593,3.6024,3.6111,3.6157,3.6224,3.6303,3.6422,3.6399,3.6449,3.6461,3.6523,3.6638,3.6491,3.6493,3.6515,3.6788,3.6805,3.6827,3.6632,3.6635,3.6639,3.6782,0,3.5756,3.5922,3.594,3.6088,3.6169,3.6161,3.6242,3.63,3.633,3.6402,3.6434,3.6518,3.6482,3.6513,3.6574,3.6611,3.6693,3.6601,3.6704,3.6708,3.6685,3.6853,3.6872,3.7004,3.6801,3.6804,3.6806,0,3.5943,3.6014,3.617,3.6237,3.6272,3.6345,3.6425,3.6495,3.656,3.6576,3.6632,3.6635,3.6731,3.6675,3.6807,3.6744,3.6787,3.6812,3.6817,3.6827,3.6763,3.6866,3.7047,3.7066,3.6836,3.6834,3.6832,0,3.6045,3.6179,3.6289,3.6325,3.6407,3.6458,3.6495,3.6556,3.6607,3.6677,3.6709,3.679,3.6834,3.6896,3.692,3.6877,3.7051,3.6997,3.7066,3.7066,3.7103,3.71,3.7292,3.7133,3.7133,3.7132,3.7132,0,3.62,3.6296,3.6336,3.6403,3.6509,3.6529,3.6634,3.6668,3.6722,3.6796,3.6794,3.6863,3.6891,3.6965,3.6984,3.709,3.711,3.7126,3.713,3.7125,3.7123,3.7153,3.7144,3.7137,3.7136,3.7135,3.7134,0,3.6332,3.6363,3.6482,3.6549,3.6568,3.6643,3.6701,3.6766,3.6793,3.6887,3.691,3.6953,3.704,3.7069,3.7175,3.7187,3.731,3.7307,3.7288,3.7288,3.7356,3.7348,3.7573,3.7603,3.7425,3.7427,3.7428,0,3.6429,3.6501,3.6576,3.6625,3.6663,3.6742,3.6793,3.6815,3.6868,3.6947,3.7002,3.7087,3.7157,3.7295,3.7336,3.7416,3.7414,3.7487,3.7426,3.7419,3.7413,3.7408,3.7415,3.7498,3.75,3.7501,3.7503,0,3.6596,3.6607,3.6681,3.6759,3.682,3.6883,3.6944,3.6984,3.7015,3.7074,3.7162,3.7216,3.7322,3.7406,3.7488,3.7525,3.7519,3.7521,3.7542,3.7538,3.7523,3.753,3.7318,3.7516,3.7515,3.7514,3.7513,3.7513,3.6713,3.6776,3.6838,3.6919,3.6967,3.7024,3.7087,3.7123,3.7196,3.7283,3.7292,3.7386,3.7448,3.7556,3.7597,3.7671,3.7651,3.768,3.7688,3.7694,3.7698,3.7512,3.7686,3.7686,3.7686,3.7685,3.7685,0,3.6879,3.6918,3.6993,3.7077,3.7141,3.7129,3.7195,3.7249,3.7332,3.739,3.7457,3.7557,3.7639,3.7686,3.7767,3.7817,3.7816,3.7837,3.7833,3.7842,3.7713,3.7687,3.7836,3.7836,3.7836,3.7836,3.7836,3.7836,3.6973,3.708,3.7098,3.7227,3.7266,3.7357,3.7396,3.7448,3.7494,3.7605,3.7672,3.7702,3.7755,3.784,3.7914,3.7926,3.7955,3.7978,3.7988,3.7867,3.7851,3.7836,3.7811,3.7985,3.7985,3.811,3.8112,3.8112]},{"header":{"parameterUnit":"m.s-1","parameterCategory":1,"la1":30.2991,"la2":30.254,"lo1":-89.0895,"lo2":-89.0444,"dy":0.0017,"dx":0.0017,"nx":28,"ny":28,"refTime":"2024-07-15T03:00:00:Z","depth":0,"parameterNumber":3,"parameterNumberName":"V-component_of_WINDS"},"data":[0,0,0,0,0,0,0,0,0,0,0,0,0,0,0,0,0,0,0,0,0,0,0,0,0,0,0,0,0,0,0,0,0,0,0,0,0,0,0,0,0,0,0,0,0,0,0,0,0,0,0,0,0,0,0,0,0,0,0.4107,0.4107,0,0.4078,0.4078,0.4078,0.4046,0.4045,0.4045,0.4044,0.4016,0.4016,0.4015,0,0,0,0,0,0,0,0,0,0,0,0,0,0.4134,0.4133,0.4107,0.4107,0.4106,0.4078,0.4078,0.4078,0.4046,0.4045,0.4045,0.4044,0.4016,0.4016,0.4015,0,0,0,0,0,0,0,0,0,0,0,0,0,0.4115,0.4133,0.4107,0.4087,0.4085,0.4078,0.4078,0.4077,0.4046,0.4045,0.4045,0.4044,0.4016,0.4016,0.4015,0.4027,0,0,0.4014,0.4014,0,0,0,0,0,0,0,0,0.4116,0.4114,0.409,0.4088,0.4086,0.4065,0.4077,0.406,0.4046,0.4061,0.4044,0.4043,0.4033,0.4031,0.4027,0.4025,0.4024,0.4014,0.4014,0.4013,0.4013,0,0,0,0,0,0,0,0.4118,0.4115,0.4096,0.409,0.4087,0.4079,0.4076,0.4074,0.4051,0.4059,0.4057,0.4054,0.4032,0.4028,0.4026,0.4024,0.4014,0.4013,0.4013,0.4013,0.4028,0.4029,0,0,0,0,0,0,0.4122,0.4117,0.4096,0.4095,0.41,0.4079,0.4076,0.4072,0.4051,0.4047,0.4055,0.4053,0.4029,0.4027,0.4025,0.4037,0.4013,0.4013,0.4013,0.4028,0.4028,0.4029,0,0,0,0,0,0,0.4123,0.412,0.4098,0.4105,0.4101,0.408,0.4076,0.4072,0.4068,0.4047,0.4043,0.4055,0.4028,0.4026,0.4026,0.4035,0.4013,0.4012,0.4027,0.4028,0.4029,0.406,0,0,0,0,0,0,0.4124,0.4121,0.4125,0.4105,0.4101,0.4099,0.4077,0.4072,0.4067,0.4065,0.4047,0.4043,0.4028,0.4027,0.4026,0.4034,0.4012,0.4026,0.4027,0.4029,0.4058,0.4062,0.4065,0,0,0,0,0,0.4125,0.4135,0.4126,0.4123,0.4106,0.41,0.4098,0.4079,0.4068,0.4072,0.4059,0.4044,0.4034,0.4027,0.4026,0.4034,0.4025,0.4027,0.4028,0.4056,0.4061,0.4065,0,0,0,0,0,0,0.4157,0.4132,0.4121,0.4126,0.4115,0.4095,0.4099,0.4085,0.4078,0.4075,0.4053,0.4049,0.4052,0.4043,0.4036,0.4043,0.4027,0.4029,0.4049,0.4054,0.4057,0.406,0.4011,0,0,0,0,0,0.4165,0.4162,0.414,0.4147,0.4142,0.4121,0.4118,0.4105,0.4093,0.4088,0.4075,0.4064,0.4058,0.4055,0.4049,0.4056,0.4051,0.4061,0.4064,0.4067,0.4069,0.4071,0.4075,0.4034,0.4034,0.4034,0,0,0.4181,0.4167,0.4167,0.4153,0.4143,0.414,0.4118,0.4116,0.4114,0.4088,0.4087,0.4077,0.4063,0.4067,0.4068,0.4059,0.4079,0.4069,0.4072,0.4072,0.4073,0.4077,0.408,0.4035,0.4035,0.4035,0,0,0.4209,0.4198,0.4202,0.4192,0.4177,0.4163,0.4164,0.4145,0.4137,0.4136,0.4116,0.4113,0.4104,0.4095,0.4089,0.4112,0.4098,0.4111,0.413,0.4132,0.4135,0.4138,0.4146,0.4149,0.4112,0.4112,0.4112,0,0.4231,0.4227,0.4206,0.4205,0.4199,0.4175,0.4178,0.417,0.4154,0.415,0.4141,0.4128,0.4118,0.4118,0.4124,0.412,0.412,0.4113,0.4137,0.4139,0.4141,0.4149,0.4152,0.4114,0.4114,0.4114,0.4113,0,0.4254,0.4251,0.4256,0.424,0.4235,0.4236,0.4215,0.4212,0.4199,0.4186,0.4185,0.4171,0.4161,0.416,0.4147,0.4158,0.4153,0.4141,0.4125,0.4147,0.4154,0.4156,0.4116,0.4116,0.4115,0.4115,0,0,0.4303,0.4275,0.4277,0.427,0.4251,0.4248,0.4248,0.4237,0.4235,0.4224,0.4224,0.4216,0.4203,0.4197,0.4183,0.4185,0.4203,0.4172,0.4171,0.4178,0.4214,0.4225,0.4228,0.4193,0.4194,0.4194,0.4216,0,0.4328,0.4326,0.4307,0.4311,0.4307,0.4283,0.4283,0.4271,0.4259,0.4254,0.424,0.4235,0.4219,0.4214,0.4215,0.4201,0.4211,0.4199,0.4193,0.4193,0.4197,0.4232,0.4242,0.4263,0.4218,0.4218,0.4219,0,0.4357,0.4348,0.4351,0.4331,0.4329,0.4329,0.4317,0.4313,0.4299,0.4289,0.4281,0.4265,0.4263,0.4247,0.4244,0.4237,0.4232,0.4225,0.4225,0.4224,0.4208,0.4232,0.427,0.4273,0.4223,0.4222,0.4222,0,0.4393,0.4381,0.4381,0.4375,0.4351,0.4352,0.4342,0.4327,0.4322,0.4312,0.4308,0.4298,0.4293,0.4285,0.4266,0.4257,0.4265,0.4248,0.4257,0.4258,0.4261,0.4261,0.4299,0.4258,0.4258,0.4258,0.4258,0,0.4423,0.4426,0.4396,0.4397,0.4399,0.4376,0.4379,0.4367,0.4353,0.4351,0.4329,0.4327,0.4302,0.4297,0.4282,0.4281,0.4279,0.4271,0.4267,0.4274,0.4275,0.4271,0.4269,0.4259,0.4258,0.4258,0.4258,0,0.4464,0.4444,0.4442,0.442,0.4414,0.4417,0.4397,0.4396,0.4382,0.4379,0.4377,0.4354,0.4347,0.4327,0.4315,0.4304,0.4308,0.4301,0.4313,0.4311,0.4321,0.432,0.4358,0.4362,0.4318,0.4319,0.4319,0,0.4484,0.4486,0.4463,0.4459,0.445,0.4445,0.4439,0.4417,0.4411,0.4395,0.4396,0.4386,0.4378,0.4367,0.435,0.434,0.4332,0.4346,0.4331,0.4336,0.4332,0.4333,0.4333,0.435,0.435,0.4351,0.4351,0,0.4523,0.4513,0.4505,0.4494,0.4488,0.4478,0.4467,0.4465,0.444,0.4435,0.4427,0.442,0.4407,0.4398,0.4385,0.4375,0.4359,0.4356,0.4358,0.4364,0.4371,0.4367,0.4322,0.4355,0.4355,0.4355,0.4354,0.4354,0.4554,0.4554,0.4538,0.453,0.4519,0.4509,0.4507,0.4491,0.4484,0.4472,0.4459,0.4452,0.4436,0.4417,0.4408,0.4402,0.4394,0.4396,0.4397,0.4398,0.4401,0.4372,0.44,0.44,0.44,0.4399,0.4399,0,0.4592,0.458,0.4573,0.4558,0.4551,0.4536,0.4522,0.4518,0.4512,0.4499,0.4491,0.4481,0.4472,0.4453,0.4442,0.4441,0.4433,0.4439,0.4439,0.4437,0.4409,0.4409,0.4445,0.4445,0.4445,0.4445,0.4445,0.4445,0.4611,0.461,0.4597,0.459,0.4578,0.4571,0.4565,0.4555,0.4544,0.4535,0.4527,0.4514,0.4499,0.4486,0.4477,0.4471,0.4469,0.4477,0.4469,0.4443,0.4439,0.4435,0.4435,0.4476,0.4476,0.4497,0.4498,0.4498]}]]